Vorticity
nan nan nan nan nan nan nan nan nan nan nan nan nan nan nan nan nan nan nan nan nan nan nan nan nan nan nan nan nan nan nan nan nan nan nan nan nan nan nan nan nan nan nan
nan 10 6 5 5 8 9 9 8 7 7 7 5 4 5 6 6 6 7 7 7 7 5 5 5 5 4 4 3 3 5 6 6 5 3 2 3 4 3 6 7 7 nan
nan 7 3 5 7 8 7 7 7 7 6 5 5 5 6 6 7 6 5 6 7 6 5 5 5 5 4 3 5 7 5 3 5 5 4 1 2 4 4 5 6 6 nan
nan 11 5 7 8 6 8 7 8 7 5 4 5 5 5 5 6 5 5 5 6 6 6 5 5 5 4 3 4 5 4 5 8 7 5 6 3 3 5 5 5 5 nan
nan 14 12 9 12 10 10 7 7 8 6 5 5 5 5 5 5 5 5 5 5 6 6 6 4 4 4 4 5 6 5 4 7 8 6 6 4 4 6 6 6 4 nan
nan 9 11 9 8 10 9 14 10 2 7 6 6 5 6 4 5 4 5 6 6 5 5 5 4 4 4 6 6 5 4 6 8 4 4 6 9 9 4 5 5 6 nan
nan 9 11 5 1 1 4 7 11 13 5 5 4 6 6 6 4 5 6 6 7 8 5 3 3 4 4 6 6 4 4 7 6 5 5 5 10 7 6 5 6 6 nan
nan 8 7 3 3 3 1 2 4 11 9 5 4 7 5 6 5 5 5 7 6 8 8 6 5 5 5 5 4 4 6 7 6 5 4 5 10 6 5 5 5 5 nan
nan 9 4 8 4 1 3 5 6 9 6 2 9 5 6 7 7 5 6 6 8 8 8 6 6 5 6 6 3 3 6 7 6 6 4 7 9 5 5 5 5 5 nan
nan 7 6 6 4 2 5 7 9 8 12 8 9 7 6 4 6 4 5 8 9 6 6 6 6 6 5 4 4 5 5 6 5 4 5 10 9 5 5 5 5 5 nan
nan 6 6 5 4 5 6 9 13 15 8 11 4 2 1 5 5 3 5 9 7 6 6 6 6 6 4 3 3 5 2 4 4 4 9 11 6 6 5 5 5 4 nan
nan 6 6 6 7 9 7 10 11 16 13 11 6 0 2 7 5 5 6 6 6 5 3 3 4 4 3 1 3 3 6 7 5 6 10 9 6 5 4 5 5 5 nan
nan 4 6 8 9 8 7 7 12 18 14 8 5 7 8 5 6 5 4 6 8 3 2 4 1 2 5 7 6 7 8 5 5 8 9 8 6 5 4 4 4 4 nan
nan 7 8 8 8 7 7 7 10 12 13 13 6 8 3 6 7 6 6 8 8 7 8 3 4 8 6 8 7 8 5 6 6 8 8 7 6 5 5 4 4 4 nan
nan 8 9 8 8 8 7 5 11 11 9 7 7 8 8 8 6 7 7 8 10 9 5 7 8 8 7 6 7 6 6 7 5 6 7 8 8 6 5 5 4 4 nan
nan 9 8 7 7 7 7 6 9 11 9 4 7 9 9 8 8 6 7 8 9 8 9 9 8 5 8 6 7 6 6 6 6 5 6 7 7 8 7 4 4 4 nan
nan 11 9 8 7 7 6 7 9 11 8 5 8 10 9 7 7 6 7 7 8 8 8 8 9 8 8 8 7 6 6 7 7 6 5 7 7 6 7 6 5 4 nan
nan 9 8 8 8 9 8 7 8 11 8 8 8 9 10 8 6 5 6 8 8 7 6 8 8 9 7 7 7 7 7 8 7 6 5 6 6 7 7 9 7 5 nan
nan 9 8 9 10 8 7 7 7 9 8 8 9 10 10 8 5 6 7 7 6 7 8 8 8 7 7 8 7 7 8 8 8 8 8 7 6 5 8 8 6 7 nan
nan 10 9 9 9 6 5 5 6 8 8 7 7 11 8 6 6 7 7 7 7 8 7 7 8 6 8 8 8 7 7 7 8 8 8 8 8 8 6 8 9 9 nan
nan 9 9 8 6 6 6 5 5 7 8 6 8 10 8 6 5 5 7 9 8 8 8 5 7 7 7 8 7 8 8 9 7 7 8 9 10 9 8 9 9 10 nan
nan 7 8 8 7 5 8 7 6 10 10 8 6 6 9 8 9 7 6 5 7 7 9 7 4 6 8 7 3 8 11 10 11 11 8 9 9 9 9 8 8 8 nan
nan 8 7 7 7 5 5 7 9 9 10 12 8 6 9 7 9 6 7 7 7 7 6 9 7 5 6 7 5 6 9 8 9 12 11 10 9 8 9 9 9 9 nan
nan 8 9 7 7 8 4 6 6 5 8 11 10 6 9 10 4 6 6 7 6 7 9 8 9 6 6 7 8 7 7 11 7 7 9 8 9 10 9 8 9 10 nan
nan 8 9 7 7 9 8 3 2 5 7 10 11 9 7 10 9 8 7 6 6 6 8 8 8 7 5 6 7 7 8 7 8 6 6 8 9 10 10 8 7 11 nan
nan nan nan nan nan nan nan nan nan nan nan nan nan nan nan nan nan nan nan nan nan nan nan nan nan nan nan nan nan nan nan nan nan nan nan nan nan nan nan nan nan nan nan
CAPE
1278 1409 1522 1720 1679 1597 1699 1667 1503 1480 1548 1517 1386 1260 1239 1337 1318 1341 1302 1231 938 692 600 408 574 298 134 85 88 94 146 194 155 165 257 102 102 112 79 98 93 35 68
1284 1567 1469 1650 1737 1647 1735 1842 1709 1672 1685 1639 1465 1425 1439 1388 1401 1293 1198 1127 913 736 382 283 282 124 21 12 19 64 40 15 28 56 81 75 74 79 54 31 57 20 15
1833 1749 1556 1687 1762 1747 1848 1989 1921 1910 1852 1706 1653 1584 1491 1420 1262 1062 879 796 780 645 170 160 95 100 21 19 26 68 46 46 44 34 34 32 56 41 22 5 10 6 10
1727 1866 1602 1672 1775 1753 1755 1888 2012 2027 1921 1773 1736 1670 1516 1257 1062 974 788 647 583 434 12 13 24 39 23 28 25 10 4 8 10 16 21 34 35 38 25 14 14 17 20
599 1477 1427 1628 1462 1301 1595 1835 1945 1927 1779 1673 1591 1644 1455 1146 1030 877 652 597 598 484 129 22 36 33 19 26 14 5 0 0 1 6 25 32 27 25 25 13 17 12 23
700 906 979 995 930 696 788 1217 1320 1753 1577 1473 1432 1477 1337 1119 1012 794 590 508 470 384 272 43 18 7 6 3 0 0 0 0 0 6 19 25 18 20 21 18 23 14 21
850 764 542 742 680 640 377 304 243 1018 959 1153 1340 1214 1057 1038 861 663 579 512 588 712 513 323 9 1 0 0 0 0 0 0 1 11 22 24 20 25 19 24 14 19 17
802 566 467 602 706 547 289 68 54 385 316 835 867 980 846 794 559 535 447 261 154 287 350 341 7 1 1 0 0 0 0 0 0 15 17 15 33 24 27 15 20 17 14
359 343 266 276 399 262 142 106 98 450 566 589 683 707 493 429 309 366 125 33 120 326 263 126 3 0 0 0 0 0 0 0 3 9 2 15 20 19 19 18 13 11 8
23 26 81 109 41 5 14 0 52 277 432 442 507 386 176 217 252 89 0 135 330 239 125 3 0 0 0 0 0 0 0 0 1 3 7 11 21 16 17 13 8 8 8
59 33 12 11 4 0 0 0 36 307 320 283 271 180 56 91 76 17 0 82 247 149 40 0 0 0 0 0 0 0 0 0 0 4 6 27 22 17 12 10 8 7 7
20 19 26 44 3 3 0 3 6 10 266 191 121 80 13 12 11 0 14 24 156 110 26 4 0 0 0 0 0 0 0 0 0 1 6 29 19 14 11 7 6 4 3
44 7 6 1 1 0 0 0 4 36 88 17 32 42 0 9 14 4 5 0 100 102 0 2 3 0 0 0 0 0 0 0 1 3 8 21 15 12 8 4 2 2 2
4 2 2 1 3 5 0 0 4 2 3 13 30 10 13 0 0 0 0 0 0 54 78 18 1 0 0 0 0 0 0 0 0 0 4 14 15 6 10 8 6 2 0
15 7 4 3 4 1 3 0 11 12 2 0 36 0 4 0 0 0 0 0 0 0 0 0 0 0 0 0 0 0 0 0 0 0 0 5 16 14 9 12 8 3 1
22 11 8 6 6 0 1 0 6 12 5 2 4 5 0 0 0 0 0 0 0 0 0 0 0 0 0 0 0 0 0 0 0 0 1 3 5 19 23 9 6 3 0
5 20 22 20 4 1 0 1 3 11 14 12 4 32 2 0 0 0 0 0 0 0 0 0 0 0 0 0 0 0 0 0 0 0 0 2 3 8 16 22 7 5 2
2 20 20 9 3 1 6 20 3 2 39 2 19 10 3 0 0 0 0 0 0 0 0 0 0 0 0 0 0 0 0 0 0 0 0 0 2 3 3 18 16 1 1
0 13 5 5 3 3 6 37 3 1 1 0 8 2 1 0 0 0 0 0 0 0 0 0 0 0 0 0 0 0 0 0 0 0 0 0 0 0 1 0 7 13 20
8 9 7 6 4 3 9 4 1 1 3 1 10 1 0 0 0 0 0 0 0 0 0 0 0 0 0 0 0 0 0 0 0 0 0 0 0 0 0 0 2 2 2
9 15 10 6 3 1 2 13 2 2 2 2 16 4 1 0 0 0 0 0 7 17 0 0 0 0 0 0 0 0 0 0 0 0 0 0 0 0 0 0 0 0 2
5 7 10 4 3 3 0 14 5 1 2 5 9 7 4 0 0 0 11 34 12 54 7 0 0 0 0 0 0 0 0 0 0 0 0 0 0 0 0 0 0 0 0
1 2 1 3 3 2 0 0 1 1 1 1 1 10 5 1 0 6 34 77 74 59 59 16 4 7 2 0 0 0 0 0 0 0 0 0 0 0 0 0 0 0 0
5 0 11 5 3 3 0 0 1 0 0 0 0 0 2 6 19 39 52 59 125 103 112 84 15 19 6 7 0 0 0 0 0 0 0 0 0 0 0 0 0 0 0
1 3 3 4 1 1 4 3 0 1 0 2 0 0 21 18 7 36 68 148 172 144 187 113 36 14 33 8 0 0 0 0 0 0 0 2 0 0 0 0 0 0 0
1 6 2 5 6 0 0 2 0 0 0 0 0 0 0 3 7 49 68 126 191 254 253 236 129 39 28 0 5 7 4 3 0 0 1 0 0 0 0 0 0 0 0